{"data":{"norad_id":67422,"epoch":"2026-09-19T14:00:58.527072Z","epoch_age_seconds":154498,"freshness":"FRESH","line1":"1 67422U 26005U   26262.58401073  .00007794  00000+0  29240-3 0  9996","line2":"2 67422  42.9971 222.6611 0000708 275.5705  84.5066 15.27584394 38357","mean_motion":15.27584394,"eccentricity":7.08e-5,"inclination_deg":42.9971,"raan_deg":222.6611,"arg_perigee_deg":275.5705,"mean_anomaly_deg":84.5066,"bstar":0.0002924,"rev_number":3835,"period_min":94.266477561305,"perigee_km":482.55016781039,"apogee_km":483.52170989853,"semimajor_km":6861.1729388545,"source":"CELESTRAK","updated_at":"2026-09-20T09:00:43.522831Z"}}